Theta_e
322 322 322 321 321 320 320 320 321 322 322 322 323 323 324 326 325 325 315 326 338 366 362 349 348 342 342 335 336 337 325 320 319 320 322 329 329 333 335 331 332 334 334 337 341
321 321 321 320 320 320 320 320 319 320 321 322 322 323 325 326 321 316 331 350 355 365 349 342 337 338 333 333 336 330 322 321 325 326 325 328 331 331 330 329 329 332 337 339 341
321 321 320 320 320 320 320 319 319 320 321 321 321 323 325 326 314 315 344 364 365 359 349 343 340 336 330 332 334 326 320 325 326 329 331 328 330 334 330 326 330 330 332 336 337
321 320 319 319 320 319 319 319 318 319 319 321 322 324 326 322 310 332 349 365 366 350 343 340 335 332 329 328 332 324 327 326 328 331 329 328 332 330 331 331 334 337 337 336 336
320 319 319 319 318 319 318 319 318 318 319 320 322 324 324 312 309 353 366 366 355 347 338 334 333 332 329 329 329 326 326 328 331 330 330 332 329 329 329 333 337 338 336 335 338
319 319 318 318 318 318 318 318 317 318 319 322 323 325 316 304 331 358 358 353 348 344 338 336 337 336 333 330 328 329 330 330 329 329 330 328 328 330 330 336 335 336 334 336 339
318 319 318 317 317 317 317 317 317 318 320 322 324 325 314 307 335 357 354 348 348 346 337 339 340 337 338 332 332 329 325 325 326 329 327 330 323 325 332 335 332 332 333 336 340
318 317 318 317 317 316 316 315 316 320 322 323 325 323 305 314 351 349 349 345 350 349 344 346 345 339 335 338 327 321 321 315 323 326 328 325 316 327 333 332 328 330 332 336 340
317 317 317 317 316 315 314 315 318 322 324 327 320 312 305 340 337 346 345 337 343 344 344 345 339 333 333 323 318 313 311 312 315 326 325 323 319 327 332 331 329 329 333 336 338
317 317 317 316 315 314 314 318 323 324 324 325 323 313 313 312 324 343 342 342 336 338 333 331 329 325 321 319 306 309 308 310 310 319 324 321 321 326 329 329 329 331 333 334 336
317 316 316 315 314 313 314 320 315 313 317 311 311 310 313 315 328 330 337 332 330 326 318 326 319 314 315 317 316 314 309 306 311 322 321 320 322 324 326 327 328 330 331 333 334
317 315 315 315 314 312 312 312 317 318 313 315 314 313 315 317 310 320 334 322 320 313 314 311 310 316 314 311 309 308 306 307 313 323 321 320 319 324 326 327 327 328 330 332 334
316 316 315 313 313 311 312 316 318 319 313 312 315 314 315 317 312 312 325 317 313 310 311 310 315 312 312 310 304 306 307 309 310 320 322 320 316 321 325 327 328 328 331 332 333
316 315 313 312 311 315 314 319 317 318 306 307 310 314 315 315 309 314 323 316 315 313 313 313 317 312 310 305 305 304 307 307 313 315 306 319 303 314 321 322 324 326 327 329 331
315 314 311 311 313 311 315 316 315 314 295 308 308 314 309 309 310 312 321 318 315 313 310 309 307 306 305 306 306 305 310 314 317 312 312 313 309 313 318 320 323 327 328 329 331
314 312 311 309 311 314 316 317 318 308 297 307 308 307 307 308 308 311 316 316 315 311 308 310 309 308 307 307 307 308 307 307 308 308 302 301 311 309 313 314 321 328 330 331 331
312 310 309 315 313 316 316 319 310 303 311 305 304 306 306 306 307 308 309 311 308 302 302 305 307 308 307 306 308 307 305 302 300 301 299 306 310 312 315 318 321 326 329 332 333
309 309 311 316 317 317 320 316 304 308 309 311 306 304 304 306 305 305 306 305 305 306 304 301 303 309 311 307 306 305 306 302 295 298 302 306 304 310 323 327 323 325 329 330 333
309 316 316 319 318 318 319 308 307 309 311 309 307 305 305 305 305 305 305 305 306 307 304 303 305 310 310 310 309 306 307 305 300 300 303 305 309 316 326 324 331 331 332 334 335
315 317 319 318 319 319 314 303 309 312 313 309 306 307 305 305 304 303 303 306 305 305 308 307 305 308 310 310 309 308 306 303 304 298 298 304 306 310 321 324 327 328 330 333 336
316 318 320 318 319 320 310 308 310 313 313 309 308 307 307 307 307 305 306 310 310 307 308 308 307 308 309 307 305 308 306 302 303 302 302 301 306 316 324 325 326 329 331 334 335
317 315 321 318 318 308 311 309 305 312 311 311 310 309 309 308 308 308 308 310 311 312 309 308 308 305 305 307 306 306 305 305 304 301 302 304 307 315 318 322 328 331 333 334 335
316 317 325 318 311 311 311 310 310 312 311 309 310 311 311 309 308 308 309 310 312 311 311 309 305 302 303 306 309 307 306 303 302 304 302 302 307 316 321 324 325 331 333 334 335
316 313 318 315 312 310 308 308 311 314 311 311 309 311 310 309 310 309 309 311 312 312 320 313 304 304 302 304 307 305 306 305 306 305 303 304 306 313 312 320 324 325 333 334 334
315 310 311 309 311 310 308 310 310 310 314 313 311 310 308 308 309 309 309 310 311 317 310 311 305 304 305 304 304 306 306 306 306 307 304 307 305 311 317 324 326 326 327 333 334
311 310 314 310 308 309 305 309 309 311 312 310 311 312 311 309 309 308 310 310 310 311 309 307 307 305 305 305 305 304 307 307 307 306 305 306 306 318 327 330 329 327 331 333 333
308 311 314 304 308 308 308 309 310 311 313 314 312 311 310 313 315 314 313 312 313 312 311 309 306 305 303 303 304 301 306 307 308 308 309 307 313 325 326 327 329 329 332 334 334
Wind_Speed
15 14 13 12 11 10 11 11 12 11 9 9 10 11 11 9 5 3 7 5 7 18 17 14 5 7 9 4 4 2 2 2 3 4 3 2 10 5 5 11 4 7 7 14 22
15 14 13 12 11 10 11 11 11 11 9 8 8 10 9 8 2 9 7 12 13 21 17 14 9 10 3 2 3 3 1 2 2 2 1 4 9 10 7 12 5 8 12 22 24
16 15 13 12 11 10 11 11 10 10 9 8 8 9 8 6 5 3 13 13 20 15 12 10 9 6 3 4 4 2 1 3 5 5 3 3 10 10 9 8 9 13 20 26 24
17 16 14 12 11 10 10 10 9 10 9 7 7 8 8 3 3 5 15 17 18 10 12 8 5 3 4 4 1 2 1 1 5 3 3 3 8 8 7 1 1 18 24 28 24
17 16 14 12 11 10 9 9 9 9 8 6 6 7 3 2 7 5 14 17 15 11 6 2 4 5 8 6 4 2 1 4 8 5 1 3 6 6 5 5 13 20 23 23 21
18 16 14 13 11 10 9 9 9 9 8 5 5 5 2 4 4 10 13 17 9 7 4 3 7 4 5 6 5 6 9 10 7 4 5 4 4 1 4 11 16 19 22 20 19
19 16 15 13 11 10 9 9 10 8 7 5 4 3 2 5 5 8 12 7 5 3 4 1 5 7 10 12 8 10 8 7 6 7 4 9 4 5 9 12 16 16 18 18 18
18 17 15 13 11 10 10 10 10 8 6 3 4 3 4 4 2 8 6 6 8 5 3 4 7 2 3 7 7 7 4 7 5 9 3 5 3 7 10 12 14 15 15 18 17
19 17 15 13 11 10 11 12 9 5 3 5 3 2 1 1 3 5 3 4 7 3 2 6 4 3 2 4 4 4 9 10 6 4 7 4 4 10 11 11 12 14 16 17 17
19 15 14 13 11 11 13 2 7 6 3 3 2 3 2 2 5 7 4 7 3 4 1 2 1 2 3 2 9 10 11 10 9 2 5 7 7 12 12 11 13 13 16 18 19
19 16 13 13 10 8 5 3 3 3 3 3 2 1 2 5 6 3 5 5 4 2 2 2 4 9 13 9 12 10 11 14 12 1 2 3 7 14 14 12 13 14 16 18 20
18 17 14 12 9 5 2 3 2 2 3 3 5 5 4 3 5 5 11 5 2 3 1 1 10 14 7 7 9 9 10 7 6 2 1 2 3 13 17 15 16 17 17 19 18
19 17 13 11 7 2 3 4 2 1 1 1 4 4 3 8 5 13 16 7 4 6 6 7 10 2 8 11 4 6 7 3 4 2 2 6 3 4 9 7 13 15 16 18 20
20 17 14 11 3 3 3 1 2 2 2 0 2 3 5 3 4 4 15 8 4 9 6 9 9 10 9 10 7 7 4 3 3 3 4 6 4 1 4 13 13 15 16 17 19
22 17 12 6 1 3 4 5 6 4 3 2 2 3 2 3 7 5 6 3 10 6 6 4 4 5 7 8 5 3 5 4 4 2 2 3 4 4 3 7 15 16 17 18 20
23 19 10 3 2 2 3 1 3 2 3 0 3 4 5 2 2 4 5 2 2 4 4 13 1 5 5 2 3 9 5 5 4 1 4 4 4 1 3 5 3 15 18 20 21
25 19 4 1 1 3 3 3 1 4 1 1 1 2 2 2 3 4 8 9 6 3 2 5 2 2 4 3 4 4 3 2 1 2 3 3 4 4 10 5 4 6 14 18 18
27 7 6 3 2 6 3 2 6 1 3 1 2 3 4 6 2 3 6 6 3 3 3 4 2 3 2 2 2 2 2 2 3 3 3 3 2 4 7 6 2 2 1 3 8
20 1 1 3 4 3 0 2 2 2 2 3 3 3 3 1 3 3 5 4 4 11 6 3 1 1 3 2 3 4 1 3 6 0 3 3 2 2 3 5 4 5 6 6 3
4 2 5 7 3 1 2 1 3 4 3 1 2 0 2 3 6 5 4 3 3 7 1 2 3 1 2 2 9 2 6 2 1 0 1 0 3 3 3 5 4 8 9 8 8
1 2 3 2 3 2 1 3 4 4 5 3 2 2 2 1 2 4 3 2 2 4 3 3 2 1 2 6 5 1 3 6 4 3 1 4 3 3 7 3 2 3 4 6 6
4 2 2 2 0 1 2 2 3 3 2 3 1 0 1 2 2 2 2 1 1 7 4 2 1 3 2 1 3 2 3 1 3 5 2 2 2 2 2 2 1 1 1 2 2
3 3 2 3 2 1 2 3 3 4 4 3 0 0 1 2 0 1 1 2 3 3 5 6 1 2 4 4 4 3 3 4 4 1 3 3 2 3 3 2 1 1 4 3 3
2 1 3 4 2 2 2 2 3 2 1 3 1 1 2 2 1 2 0 3 2 3 6 4 3 3 2 1 1 1 1 2 3 2 4 4 3 4 3 4 5 3 2 4 4
4 3 2 3 3 4 2 2 3 3 2 4 3 5 2 3 4 3 3 2 3 4 3 1 4 3 2 2 2 2 4 5 6 5 7 4 7 2 2 7 7 6 2 4 4
3 3 1 1 3 3 1 1 2 4 3 3 4 9 1 1 2 2 3 3 3 3 2 1 4 3 2 3 5 6 9 9 10 6 10 8 11 2 3 2 2 2 7 7 6
3 1 3 2 2 2 1 2 1 5 2 1 7 5 4 4 8 7 6 2 0 3 5 3 6 4 9 2 4 8 13 12 6 7 7 8 3 4 3 3 4 5 8 10 9
Wind_Direction
339 336 333 328 324 315 307 304 306 312 323 321 325 319 324 325 312 214 235 210 170 154 138 152 212 151 165 199 209 187 237 171 158 174 118 157 170 118 89 136 153 162 156 149 152
340 337 332 327 321 314 307 304 304 308 317 324 321 316 320 330 265 239 250 169 185 149 149 165 172 161 221 178 201 231 274 181 218 159 149 157 173 151 159 147 125 97 112 137 153
342 338 334 326 320 314 307 305 303 306 315 323 319 310 317 318 283 263 166 184 147 149 151 172 158 183 239 184 183 196 312 221 234 246 267 182 184 175 168 190 182 165 149 151 159
343 339 334 327 320 313 307 304 305 306 315 322 317 307 314 229 179 43 164 170 146 144 146 158 181 206 270 10 112 312 348 23 331 285 293 224 159 155 181 77 175 156 160 155 164
346 340 336 330 322 315 308 305 303 305 310 315 308 310 277 208 262 83 140 154 148 146 155 124 15 339 334 358 328 215 134 199 203 215 258 274 183 115 67 44 126 144 159 163 164
342 343 339 333 326 317 312 304 302 306 305 300 290 302 223 231 340 139 141 156 157 108 104 34 29 337 318 327 335 307 290 259 230 235 136 104 122 258 84 117 128 147 160 167 167
346 341 341 335 326 319 311 303 303 304 292 282 265 244 174 241 352 138 137 141 143 159 113 45 337 350 331 320 346 290 306 293 198 175 116 135 119 60 129 129 135 150 159 168 171
346 344 340 333 327 320 311 302 297 285 272 245 220 211 243 349 109 144 148 99 129 78 63 38 18 317 288 307 303 312 313 350 146 163 119 197 64 124 141 141 142 151 167 171 170
349 346 341 333 328 323 314 301 276 243 193 144 168 253 220 325 191 143 163 115 135 134 309 325 343 14 301 301 307 344 301 313 340 208 132 206 113 156 160 150 152 165 172 176 172
348 346 341 334 330 330 322 282 127 143 161 187 252 222 171 197 145 139 112 126 111 135 85 2 52 272 194 253 323 311 306 300 285 121 191 158 134 159 171 167 163 175 175 180 183
344 346 339 331 326 332 322 171 182 151 206 230 122 319 78 85 138 120 144 123 131 97 4 67 285 277 296 274 276 292 294 290 285 28 223 258 152 174 175 178 174 181 185 192 193
337 343 338 329 318 315 241 231 173 50 300 236 249 276 228 206 116 117 161 157 175 240 167 254 275 291 273 279 270 262 272 269 278 32 244 11 294 167 180 193 188 187 189 197 198
335 336 333 328 313 204 240 242 58 92 239 257 200 204 177 176 175 172 175 159 183 222 227 248 268 274 290 300 255 240 235 218 289 19 79 307 136 148 195 214 203 206 204 200 204
333 335 334 330 203 147 235 1 99 261 72 32 214 149 136 193 133 138 182 168 189 215 215 253 277 259 267 272 224 309 235 273 212 251 346 348 353 99 173 206 215 213 210 209 208
331 335 330 286 98 207 96 351 135 214 112 121 149 108 140 196 132 162 193 204 202 189 195 223 237 222 265 268 197 328 34 64 104 113 296 41 289 57 137 186 219 219 218 214 209
330 330 324 169 213 262 327 166 234 216 69 129 132 172 162 152 119 117 166 110 78 203 237 264 285 247 243 263 201 147 84 76 87 290 251 11 273 113 19 331 234 210 216 216 215
330 324 228 264 87 340 305 173 236 49 331 67 214 200 197 157 153 162 177 199 225 249 357 308 200 228 235 221 127 186 180 279 199 177 5 351 210 8 333 348 252 185 210 216 221
330 330 192 246 304 339 192 224 57 218 263 10 152 131 206 172 174 146 149 206 200 209 268 306 120 18 18 316 3 59 320 315 21 341 42 147 22 33 333 319 256 182 256 215 228
321 145 211 320 253 239 88 62 165 254 288 296 175 134 172 218 241 186 213 204 202 189 213 203 276 350 42 15 316 135 117 48 111 114 239 352 192 251 28 122 124 90 93 61 29
339 341 20 343 155 166 73 186 240 230 298 272 24 129 96 156 188 202 188 158 187 203 284 149 287 50 347 201 69 323 123 183 60 267 88 12 273 97 146 142 49 38 20 8 7
313 81 4 5 286 56 165 245 271 248 236 203 242 160 99 133 167 175 168 147 161 106 158 157 286 30 253 28 354 175 171 70 105 334 245 176 170 180 188 180 68 16 348 349 354
331 101 26 281 134 16 180 213 318 290 121 252 194 99 95 131 103 163 183 319 73 152 156 55 112 304 43 3 297 324 46 357 241 165 44 331 145 63 238 188 152 326 360 4 348
16 305 22 286 194 192 313 267 266 333 1 10 229 245 57 109 186 279 187 85 177 152 160 169 63 304 171 182 175 44 52 81 87 147 178 260 100 100 108 168 59 129 135 87 61
341 350 1 54 25 14 352 12 315 345 216 341 328 141 126 161 90 174 173 30 24 89 71 133 128 256 284 219 68 179 118 93 356 274 145 249 319 168 183 305 316 310 136 92 50
10 66 35 1 50 3 315 340 318 333 6 3 104 42 285 209 163 199 169 154 77 151 66 264 195 205 236 240 229 261 253 211 254 271 245 281 239 260 304 306 312 294 186 124 79
10 352 16 332 291 289 307 87 14 331 304 23 46 338 295 196 337 257 189 218 182 137 101 38 163 186 249 210 226 263 261 253 257 250 250 262 270 251 329 306 343 279 152 129 82
8 353 290 62 339 271 83 11 44 341 227 14 4 319 134 23 306 287 283 315 7 179 148 180 153 184 259 206 266 250 246 246 196 202 216 221 273 163 118 88 72 116 111 106 99